Location: Observatoire
(46.1952°N, 5.3391°E)
Time: 23:49:12
(UTC+01:00)

Courier 1B Rocket - Pass Details

Date: 22 February 2026
Orbit: 920 x 1201 km, 28.2° (Epoch: 11 March)

Event Time Altitude Azimuth Distance (km) Brightness Sun altitude
Rises 18:32:01 0° 222° (SW) 3,561 8.9 -3.8°
Reaches altitude 10° 18:36:20 10° 194° (SSW) 2,601 7.6 -4.5°
Maximum altitude 18:38:50 13° 170° (S) 2,415 7.1 -4.9°
Drops below altitude 10° 18:41:21 10° 146° (SE) 2,604 7.0 -5.4°
Sets 18:45:40 0° 119° (ESE) 3,571 7.5 -6.1°
Enters shadow 18:45:46 - 118° (ESE) 3,601 7.5 -6.1°
